N119SB RJTT-RJNG

Flight info

Callsign N119SB
Flight time N/A
Altitude 5000
Route DCT SEIKO DCT NINOX DCT BIVET DCT BONTI DCT MADEG DCT SUGAL DCT TOLUM DCT ENDAG DCT
Aircraft C172/L-SFG/C

Departure

Time 2026-05-04 17:39
Airport Tokyo Haneda International Airport (RJTT)

Arrival

Time N/A
Airport Gifu Airport (RJNG)
Time Latitude Longitude Altitude Speed Heading
2026-05-04 17:29 35.56409 139.78005 18 ft 0 kts 148°
2026-05-04 17:35 35.56472 139.78071 18 ft 10 kts 347°
2026-05-04 17:35 35.56562 139.78003 18 ft 8 kts 306°
2026-05-04 17:35 35.56597 139.77945 18 ft 10 kts 307°
2026-05-04 17:36 35.56629 139.77890 18 ft 13 kts 308°
2026-05-04 17:36 35.56683 139.77794 18 ft 12 kts 301°
2026-05-04 17:36 35.56692 139.77776 18 ft 0 kts 302°
2026-05-04 17:37 35.56693 139.77773 19 ft 2 kts 303°
2026-05-04 17:37 35.56719 139.77690 20 ft 14 kts 245°
2026-05-04 17:38 35.56653 139.77622 20 ft 26 kts 211°
2026-05-04 17:38 35.56353 139.77376 25 ft 72 kts 226°
2026-05-04 17:38 35.55727 139.76936 189 ft 77 kts 242°
2026-05-04 17:38 35.55338 139.76506 338 ft 74 kts 256°
2026-05-04 17:39 35.54875 139.75507 551 ft 86 kts 261°
2026-05-04 17:39 35.54635 139.74814 725 ft 91 kts 263°
2026-05-04 17:39 35.54397 139.74108 906 ft 93 kts 260°
2026-05-04 17:40 35.54119 139.73379 1085 ft 95 kts 262°
2026-05-04 17:40 35.53829 139.72638 1274 ft 98 kts 263°
2026-05-04 17:40 35.53513 139.71882 1448 ft 101 kts 262°
2026-05-04 17:40 35.53183 139.71117 1575 ft 106 kts 263°
2026-05-04 17:41 35.52837 139.70277 1573 ft 111 kts 263°
2026-05-04 17:41 35.52486 139.69430 1574 ft 111 kts 262°
2026-05-04 17:41 35.52132 139.68584 1562 ft 111 kts 262°
2026-05-04 17:41 35.51786 139.67755 1559 ft 110 kts 262°
2026-05-04 17:42 35.51540 139.66914 1556 ft 103 kts 272°
2026-05-04 17:42 35.51330 139.66067 1563 ft 105 kts 273°
2026-05-04 17:42 35.51132 139.65204 1562 ft 106 kts 272°
2026-05-04 17:42 35.50927 139.64339 1563 ft 105 kts 272°
2026-05-04 17:43 35.50728 139.63481 1557 ft 104 kts 273°
2026-05-04 17:43 35.50528 139.62621 1556 ft 104 kts 272°
2026-05-04 17:43 35.50335 139.61762 1558 ft 105 kts 272°
2026-05-04 17:43 35.50135 139.60892 1559 ft 107 kts 272°
2026-05-04 17:44 35.49945 139.60031 1555 ft 104 kts 273°
2026-05-04 17:44 35.49736 139.59175 1563 ft 106 kts 272°
2026-05-04 17:44 35.49523 139.58335 1560 ft 101 kts 272°
2026-05-04 17:44 35.49307 139.57507 1558 ft 102 kts 272°
2026-05-04 17:45 35.49103 139.56670 1560 ft 103 kts 272°
2026-05-04 17:45 35.48889 139.55822 1556 ft 103 kts 272°
2026-05-04 17:45 35.48683 139.54988 1562 ft 102 kts 271°
2026-05-04 17:45 35.48491 139.54166 1559 ft 101 kts 272°
2026-05-04 17:46 35.48294 139.53341 1578 ft 97 kts 273°
2026-05-04 17:46 35.48109 139.52572 1711 ft 89 kts 280°
2026-05-04 17:46 35.48138 139.51841 1805 ft 89 kts 284°
2026-05-04 17:46 35.48226 139.51071 1946 ft 94 kts 285°
2026-05-04 17:47 35.48330 139.50252 2081 ft 99 kts 282°
2026-05-04 17:47 35.48376 139.49404 2211 ft 98 kts 286°
2026-05-04 17:47 35.48466 139.48567 2343 ft 100 kts 282°
2026-05-04 17:47 35.48531 139.47710 2471 ft 101 kts 279°
2026-05-04 17:48 35.48582 139.46853 2594 ft 100 kts 278°
2026-05-04 17:48 35.48621 139.46040 2783 ft 92 kts 279°
2026-05-04 17:48 35.48654 139.45287 2972 ft 86 kts 279°
2026-05-04 17:48 35.48683 139.44593 3153 ft 79 kts 278°
2026-05-04 17:49 35.48712 139.43923 3304 ft 78 kts 278°
2026-05-04 17:49 35.48740 139.43270 3454 ft 76 kts 277°
2026-05-04 17:49 35.48767 139.42632 3598 ft 74 kts 276°
2026-05-04 17:49 35.48792 139.42003 3744 ft 74 kts 276°
2026-05-04 17:50 35.48821 139.41374 3897 ft 73 kts 276°
2026-05-04 17:50 35.48845 139.40758 4040 ft 71 kts 275°
2026-05-04 17:50 35.48869 139.40171 4186 ft 66 kts 275°
2026-05-04 17:50 35.48891 139.39611 4331 ft 65 kts 275°
2026-05-04 17:51 35.48913 139.39068 4479 ft 64 kts 276°
2026-05-04 17:51 35.48931 139.38522 4607 ft 64 kts 268°
2026-05-04 17:51 35.48615 139.38143 4718 ft 66 kts 233°
2026-05-04 17:51 35.48320 139.37742 4810 ft 68 kts 213°
2026-05-04 17:52 35.47980 139.37355 4870 ft 72 kts 226°
2026-05-04 17:52 35.47595 139.36921 4935 ft 79 kts 230°
2026-05-04 17:52 35.47169 139.36419 4995 ft 90 kts 231°
2026-05-04 17:52 35.46705 139.35859 5079 ft 96 kts 230°
2026-05-04 17:53 35.46222 139.35275 5165 ft 99 kts 230°
2026-05-04 17:53 35.45734 139.34682 5244 ft 101 kts 230°
2026-05-04 17:53 35.45232 139.34074 5343 ft 101 kts 230°
2026-05-04 17:53 35.44734 139.33477 5468 ft 99 kts 230°
2026-05-04 17:54 35.44241 139.32890 5590 ft 98 kts 230°
2026-05-04 17:54 35.43751 139.32312 5716 ft 97 kts 230°
2026-05-04 17:54 35.43265 139.31745 5842 ft 96 kts 230°
2026-05-04 17:54 35.42817 139.31157 5963 ft 92 kts 251°
2026-05-04 17:55 35.42702 139.30408 6101 ft 89 kts 261°
2026-05-04 17:55 35.42596 139.29674 6231 ft 89 kts 262°
2026-05-04 17:55 35.42492 139.28935 6352 ft 87 kts 262°
2026-05-04 17:55 35.42386 139.28229 6466 ft 82 kts 263°
2026-05-04 17:56 35.42281 139.27533 6582 ft 85 kts 263°
2026-05-04 17:56 35.42177 139.26815 6685 ft 86 kts 262°
2026-05-04 17:56 35.42073 139.26088 6781 ft 87 kts 262°
2026-05-04 17:56 35.41972 139.25357 6885 ft 87 kts 262°
2026-05-04 17:57 35.41871 139.24628 6989 ft 87 kts 262°
2026-05-04 17:57 35.41773 139.23916 7079 ft 85 kts 263°
2026-05-04 17:57 35.41667 139.23189 7183 ft 89 kts 262°
2026-05-04 17:57 35.41561 139.22440 7279 ft 88 kts 262°
2026-05-04 17:58 35.41459 139.21707 7372 ft 86 kts 262°
2026-05-04 17:58 35.41353 139.20987 7473 ft 86 kts 262°
2026-05-04 17:58 35.41373 139.20255 7574 ft 88 kts 281°
2026-05-04 17:58 35.41471 139.19518 7681 ft 87 kts 278°
2026-05-04 17:59 35.41563 139.18802 7779 ft 86 kts 277°
2026-05-04 17:59 35.41650 139.18089 7882 ft 85 kts 277°
2026-05-04 17:59 35.41828 139.16675 8076 ft 81 kts 276°
2026-05-04 18:00 35.41896 139.16016 8182 ft 77 kts 277°
2026-05-04 18:00 35.41972 139.15354 8244 ft 75 kts 277°
2026-05-04 18:00 35.42036 139.14794 8241 ft 59 kts 275°
2026-05-04 18:00 35.42102 139.14261 8298 ft 66 kts 276°
2026-05-04 18:01 35.42165 139.13694 8368 ft 70 kts 277°
2026-05-04 18:01 35.42237 139.13080 8459 ft 76 kts 277°
2026-05-04 18:01 35.42311 139.12439 8485 ft 74 kts 277°
2026-05-04 18:02 35.42457 139.11185 8589 ft 76 kts 275°
2026-05-04 18:02 35.42528 139.10575 8623 ft 69 kts 277°
2026-05-04 18:02 35.42599 139.09955 8705 ft 78 kts 277°
2026-05-04 18:02 35.42680 139.09264 8786 ft 85 kts 277°
2026-05-04 18:03 35.42761 139.08557 8835 ft 85 kts 278°
2026-05-04 18:03 35.42847 139.07812 8902 ft 92 kts 278°
2026-05-04 18:03 35.42938 139.07027 8968 ft 95 kts 278°
2026-05-04 18:03 35.43028 139.06256 8988 ft 91 kts 279°
2026-05-04 18:04 35.43116 139.05459 8986 ft 98 kts 278°
2026-05-04 18:04 35.43216 139.04611 8993 ft 102 kts 278°
2026-05-04 18:04 35.43414 139.02893 8966 ft 96 kts 279°
2026-05-04 18:05 35.43502 139.02123 8979 ft 92 kts 278°
2026-05-04 18:05 35.43593 139.01328 8966 ft 94 kts 279°
2026-05-04 18:05 35.43682 139.00557 8981 ft 92 kts 279°
2026-05-04 18:05 35.43768 138.99794 8973 ft 91 kts 279°
2026-05-04 18:06 35.43947 138.98239 8985 ft 95 kts 278°
2026-05-04 18:06 35.44040 138.97427 8990 ft 97 kts 278°
2026-05-04 18:06 35.44135 138.96602 8982 ft 97 kts 278°
2026-05-04 18:07 35.44228 138.95780 8983 ft 97 kts 278°
2026-05-04 18:07 35.44320 138.94973 8974 ft 94 kts 278°
2026-05-04 18:07 35.44412 138.94190 8996 ft 95 kts 278°
2026-05-04 18:07 35.44499 138.93374 9003 ft 98 kts 278°
2026-05-04 18:08 35.44601 138.92529 8993 ft 102 kts 279°
2026-05-04 18:08 35.44696 138.91691 8983 ft 96 kts 279°
2026-05-04 18:08 35.44785 138.90892 8998 ft 95 kts 279°
2026-05-04 18:08 35.44882 138.90070 8997 ft 99 kts 279°
2026-05-04 18:09 35.45073 138.88384 8999 ft 102 kts 278°
2026-05-04 18:09 35.45264 138.86684 8996 ft 103 kts 281°
2026-05-04 18:10 35.45364 138.85799 9001 ft 106 kts 280°
2026-05-04 18:10 35.45465 138.84914 8992 ft 103 kts 281°
2026-05-04 18:10 35.45565 138.84033 8997 ft 105 kts 279°
2026-05-04 18:10 35.45666 138.83139 8999 ft 106 kts 280°
2026-05-04 18:11 35.45767 138.82247 8991 ft 105 kts 280°
2026-05-04 18:11 35.45865 138.81370 8991 ft 104 kts 280°
2026-05-04 18:11 35.45964 138.80496 8982 ft 103 kts 280°
2026-05-04 18:11 35.46061 138.79635 9014 ft 100 kts 279°
2026-05-04 18:12 35.46154 138.78809 9007 ft 98 kts 279°
2026-05-04 18:12 35.46246 138.77987 9004 ft 97 kts 279°
2026-05-04 18:12 35.46339 138.77172 8999 ft 96 kts 278°
2026-05-04 18:12 35.46430 138.76357 9003 ft 96 kts 279°
2026-05-04 18:13 35.46521 138.75545 9006 ft 96 kts 279°
2026-05-04 18:13 35.46614 138.74731 9005 ft 98 kts 279°
2026-05-04 18:13 35.46804 138.73083 9016 ft 99 kts 279°
2026-05-04 18:14 35.46887 138.72238 9012 ft 102 kts 277°
2026-05-04 18:14 35.46667 138.71441 9009 ft 107 kts 233°
2026-05-04 18:14 35.46124 138.70817 9012 ft 107 kts 233°
2026-05-04 18:15 35.45034 138.69566 9014 ft 109 kts 232°
2026-05-04 18:15 35.43928 138.68292 9016 ft 110 kts 232°
2026-05-04 18:15 35.43380 138.67661 9020 ft 110 kts 232°
2026-05-04 18:16 35.42791 138.66999 9005 ft 116 kts 232°
2026-05-04 18:16 35.42227 138.66320 9007 ft 113 kts 232°
2026-05-04 18:16 35.41658 138.65662 9008 ft 112 kts 232°
2026-05-04 18:17 35.40705 138.64197 9005 ft 111 kts 247°
2026-05-04 18:17 35.40320 138.63375 9006 ft 111 kts 247°
2026-05-04 18:17 35.39555 138.61727 9008 ft 112 kts 247°
2026-05-04 18:18 35.39171 138.60896 9009 ft 112 kts 247°
2026-05-04 18:18 35.38785 138.60068 9005 ft 111 kts 247°
2026-05-04 18:18 35.38451 138.59224 9007 ft 108 kts 257°
2026-05-04 18:18 35.38209 138.58346 9005 ft 109 kts 257°
2026-05-04 18:19 35.37721 138.56592 9003 ft 108 kts 257°
2026-05-04 18:19 35.37478 138.55724 8998 ft 108 kts 257°
2026-05-04 18:19 35.37237 138.54868 8986 ft 101 kts 257°
2026-05-04 18:20 35.37012 138.54113 8988 ft 94 kts 256°
2026-05-04 18:20 35.36811 138.53390 8982 ft 84 kts 257°
2026-05-04 18:20 35.36599 138.52745 9074 ft 86 kts 257°
2026-05-04 18:20 35.36390 138.51987 9016 ft 99 kts 257°
2026-05-04 18:21 35.36165 138.51185 9016 ft 99 kts 257°
2026-05-04 18:21 35.35941 138.50386 9013 ft 101 kts 257°
2026-05-04 18:21 35.35706 138.49562 9013 ft 104 kts 257°
2026-05-04 18:21 35.35466 138.48714 9011 ft 107 kts 257°
2026-05-04 18:22 35.35227 138.47852 9008 ft 106 kts 257°
2026-05-04 18:22 35.34986 138.47004 9009 ft 108 kts 257°
2026-05-04 18:22 35.34741 138.46136 9010 ft 108 kts 257°
2026-05-04 18:22 35.34496 138.45276 9007 ft 106 kts 257°
2026-05-04 18:23 35.34252 138.44423 9004 ft 106 kts 257°
2026-05-04 18:23 35.34011 138.43578 8992 ft 105 kts 257°
2026-05-04 18:23 35.33763 138.42739 9000 ft 105 kts 257°
2026-05-04 18:23 35.33518 138.41897 8995 ft 104 kts 257°
2026-05-04 18:24 35.33278 138.41071 9005 ft 103 kts 257°
2026-05-04 18:24 35.33035 138.40233 9008 ft 106 kts 257°
2026-05-04 18:24 35.32789 138.39383 9002 ft 108 kts 257°
2026-05-04 18:24 35.32539 138.38523 9004 ft 107 kts 257°
2026-05-04 18:25 35.32291 138.37666 9005 ft 107 kts 257°
2026-05-04 18:25 35.32032 138.36801 9021 ft 110 kts 250°
2026-05-04 18:25 35.31785 138.35933 9031 ft 103 kts 262°
2026-05-04 18:25 35.31534 138.35082 9012 ft 107 kts 256°
2026-05-04 18:26 35.31294 138.34176 8987 ft 117 kts 256°
2026-05-04 18:26 35.31006 138.33259 8997 ft 114 kts 256°
2026-05-04 18:26 35.30751 138.32403 8989 ft 104 kts 257°
2026-05-04 18:26 35.30504 138.31561 8992 ft 109 kts 257°
2026-05-04 18:27 35.30233 138.30671 9006 ft 118 kts 253°
2026-05-04 18:27 35.29962 138.29726 9000 ft 113 kts 259°
2026-05-04 18:27 35.29739 138.28783 9000 ft 121 kts 257°
2026-05-04 18:27 35.29471 138.27797 8962 ft 126 kts 257°
2026-05-04 18:28 35.29197 138.26785 9014 ft 128 kts 254°
2026-05-04 18:28 35.28907 138.25763 9017 ft 126 kts 251°
2026-05-04 18:28 35.28364 138.24948 9000 ft 124 kts 232°
2026-05-04 18:28 35.27764 138.24236 9003 ft 115 kts 233°
2026-05-04 18:29 35.27184 138.23528 8986 ft 120 kts 231°
2026-05-04 18:29 35.26615 138.22819 8998 ft 116 kts 233°
2026-05-04 18:29 35.26027 138.22139 9005 ft 113 kts 235°
2026-05-04 18:29 35.25452 138.21550 9001 ft 100 kts 232°
2026-05-04 18:30 35.24312 138.20440 9056 ft 97 kts 238°
2026-05-04 18:30 35.23765 138.19924 9008 ft 108 kts 232°
2026-05-04 18:30 35.23202 138.19429 9003 ft 92 kts 228°
2026-05-04 18:31 35.22699 138.18982 8943 ft 89 kts 226°
2026-05-04 18:31 35.22150 138.18567 8832 ft 101 kts 232°
2026-05-04 18:31 35.21631 138.17935 8570 ft 113 kts 256°
2026-05-04 18:31 35.21335 138.17031 8516 ft 113 kts 257°
2026-05-04 18:32 35.21033 138.16150 8574 ft 110 kts 263°
2026-05-04 18:32 35.20815 138.15237 8503 ft 112 kts 264°
2026-05-04 18:32 35.20596 138.14325 8443 ft 113 kts 265°
2026-05-04 18:32 35.20442 138.13393 8374 ft 111 kts 269°
2026-05-04 18:33 35.20359 138.12452 8307 ft 110 kts 274°
2026-05-04 18:33 35.20323 138.11510 8249 ft 108 kts 279°
2026-05-04 18:33 35.20345 138.10591 8163 ft 108 kts 281°
2026-05-04 18:33 35.20432 138.09673 8090 ft 106 kts 285°
2026-05-04 18:34 35.20545 138.08794 8131 ft 103 kts 285°
2026-05-04 18:34 35.20643 138.07933 8136 ft 102 kts 285°
2026-05-04 18:34 35.20777 138.07074 8131 ft 103 kts 291°
2026-05-04 18:34 35.20992 138.06249 7937 ft 106 kts 296°
2026-05-04 18:35 35.21203 138.05400 8030 ft 103 kts 292°
2026-05-04 18:35 35.21397 138.04522 7892 ft 113 kts 285°
2026-05-04 18:35 35.21452 138.03528 7808 ft 117 kts 280°
2026-05-04 18:35 35.21508 138.02534 7683 ft 120 kts 283°
2026-05-04 18:36 35.21645 138.01538 7617 ft 116 kts 287°
2026-05-04 18:36 35.21730 138.00598 7578 ft 109 kts 282°
2026-05-04 18:36 35.21746 137.99677 7319 ft 103 kts 284°
2026-05-04 18:36 35.21740 137.98906 7373 ft 86 kts 285°
2026-05-04 18:37 35.21726 137.98191 7395 ft 85 kts 286°
2026-05-04 18:37 35.21743 137.97472 7554 ft 85 kts 284°
2026-05-04 18:37 35.21727 137.96733 7569 ft 90 kts 284°
2026-05-04 18:37 35.21717 137.95971 7674 ft 85 kts 285°
2026-05-04 18:38 35.21709 137.95232 7564 ft 80 kts 284°
2026-05-04 18:38 35.21707 137.94576 7441 ft 80 kts 285°
2026-05-04 18:38 35.21662 137.93891 7441 ft 80 kts 287°
2026-05-04 18:38 35.21640 137.93180 7405 ft 84 kts 285°
2026-05-04 18:39 35.21611 137.92556 7312 ft 76 kts 279°
2026-05-04 18:39 35.21552 137.91884 7281 ft 84 kts 288°
2026-05-04 18:39 35.21545 137.91110 7262 ft 95 kts 286°
2026-05-04 18:39 35.21546 137.90264 7237 ft 104 kts 285°
2026-05-04 18:40 35.21406 137.89333 7198 ft 119 kts 267°
2026-05-04 18:40 35.21170 137.88366 7129 ft 118 kts 267°
2026-05-04 18:40 35.20937 137.87418 7095 ft 117 kts 267°
2026-05-04 18:40 35.20712 137.86476 7023 ft 116 kts 267°
2026-05-04 18:41 35.20434 137.85536 7022 ft 122 kts 262°
2026-05-04 18:41 35.20133 137.84613 6985 ft 115 kts 262°
2026-05-04 18:41 35.19828 137.83680 6916 ft 121 kts 263°
2026-05-04 18:41 35.19522 137.82703 6848 ft 125 kts 262°
2026-05-04 18:42 35.19212 137.81687 6779 ft 129 kts 262°
2026-05-04 18:42 35.18665 137.80736 6386 ft 152 kts 218°
2026-05-04 18:42 35.17614 137.80427 5750 ft 159 kts 185°
2026-05-04 18:42 35.16557 137.80344 5303 ft 148 kts 180°
2026-05-04 18:43 35.15531 137.80342 4689 ft 150 kts 183°
2026-05-04 18:43 35.14522 137.80259 4251 ft 152 kts 209°
2026-05-04 18:43 35.13542 137.79723 3880 ft 148 kts 234°
2026-05-04 18:43 35.13269 137.78738 3809 ft 107 kts 305°
2026-05-04 18:44 35.13779 137.78715 3537 ft 114 kts 61°
2026-05-04 18:44 35.13788 137.79398 2997 ft 138 kts 101°
2026-05-04 18:44 35.13636 137.80918 2504 ft 131 kts 75°
2026-05-04 18:44 35.14040 137.81870 2368 ft 131 kts 55°
2026-05-04 18:45 35.14658 137.82673 2199 ft 128 kts 36°
2026-05-04 18:45 35.15403 137.82884 2222 ft 110 kts 327°
2026-05-04 18:45 35.15721 137.82158 2207 ft 107 kts 238°
2026-05-04 18:45 35.15061 137.81595 2001 ft 123 kts 207°
2026-05-04 18:46 35.14223 137.81340 1820 ft 129 kts 181°
2026-05-04 18:46 35.13401 137.81104 1790 ft 116 kts 209°
2026-05-04 18:46 35.12818 137.80483 1878 ft 106 kts 233°
2026-05-04 18:46 35.12194 137.79940 1942 ft 115 kts 198°
2026-05-04 18:47 35.11453 137.79729 2050 ft 112 kts 191°
2026-05-04 18:47 35.10626 137.79616 1938 ft 124 kts 190°
2026-05-04 18:47 35.09774 137.79504 2001 ft 125 kts 176°
2026-05-04 18:47 35.08946 137.79594 2096 ft 125 kts 181°
2026-05-04 18:48 35.08133 137.79356 2104 ft 119 kts 212°
2026-05-04 18:48 35.07518 137.78770 2167 ft 107 kts 242°
2026-05-04 18:48 35.07278 137.77959 2158 ft 99 kts 269°
2026-05-04 18:48 35.07229 137.77119 2105 ft 97 kts 276°
2026-05-04 18:49 35.07219 137.76318 2188 ft 89 kts 279°
2026-05-04 18:49 35.07271 137.75562 2242 ft 97 kts 279°
2026-05-04 18:49 35.07294 137.74708 2376 ft 103 kts 280°
2026-05-04 18:49 35.07337 137.73831 2480 ft 100 kts 279°
2026-05-04 18:50 35.07350 137.73012 2604 ft 99 kts 279°
2026-05-04 18:50 35.07374 137.72151 2765 ft 108 kts 282°
2026-05-04 18:50 35.07373 137.71199 2904 ft 116 kts 281°
2026-05-04 18:50 35.07392 137.70205 3054 ft 122 kts 281°
2026-05-04 18:51 35.07388 137.69175 3211 ft 125 kts 279°
2026-05-04 18:51 35.07367 137.68125 3296 ft 124 kts 278°
2026-05-04 18:51 35.07350 137.67116 3428 ft 116 kts 282°
2026-05-04 18:51 35.07294 137.66156 3568 ft 116 kts 272°
2026-05-04 18:52 35.07066 137.65177 3686 ft 120 kts 268°
2026-05-04 18:52 35.06823 137.64200 3806 ft 121 kts 265°
2026-05-04 18:52 35.06588 137.63227 3964 ft 119 kts 267°
2026-05-04 18:52 35.06359 137.62263 4054 ft 123 kts 266°
2026-05-04 18:53 35.05976 137.61287 4036 ft 130 kts 253°
2026-05-04 18:53 35.05553 137.60314 4029 ft 129 kts 256°
2026-05-04 18:53 35.05138 137.59371 4044 ft 124 kts 255°
2026-05-04 18:53 35.04716 137.58408 3708 ft 128 kts 254°
2026-05-04 18:54 35.04293 137.57555 3844 ft 112 kts 252°
2026-05-04 18:54 35.03868 137.56719 3964 ft 117 kts 254°
2026-05-04 18:54 35.03464 137.55902 4028 ft 112 kts 256°
2026-05-04 18:54 35.03039 137.55070 4041 ft 116 kts 253°
2026-05-04 18:55 35.02608 137.54238 3994 ft 118 kts 254°
2026-05-04 18:55 35.01745 137.52524 3964 ft 115 kts 255°
2026-05-04 18:55 35.01515 137.51638 3965 ft 109 kts 276°
2026-05-04 18:56 35.01320 137.50724 3959 ft 112 kts 272°
2026-05-04 18:56 35.01123 137.49814 3966 ft 111 kts 272°
2026-05-04 18:56 35.00930 137.48897 3947 ft 109 kts 272°
2026-05-04 18:56 35.00746 137.48018 3945 ft 106 kts 272°
2026-05-04 18:57 35.00571 137.47154 3960 ft 104 kts 274°
2026-05-04 18:57 35.00386 137.46264 3917 ft 107 kts 272°
2026-05-04 18:57 35.00187 137.45464 3986 ft 96 kts 275°
2026-05-04 18:57 34.99985 137.44620 3963 ft 107 kts 269°
2026-05-04 18:58 34.99782 137.43740 3987 ft 110 kts 272°
2026-05-04 18:58 34.99582 137.42809 3956 ft 113 kts 273°
2026-05-04 18:58 34.99379 137.41878 3954 ft 116 kts 268°
2026-05-04 18:58 34.99130 137.40932 3972 ft 119 kts 267°
2026-05-04 18:59 34.98865 137.39991 3964 ft 118 kts 268°
2026-05-04 18:59 34.98628 137.39051 3955 ft 114 kts 269°
2026-05-04 18:59 34.98406 137.38137 3955 ft 111 kts 270°
2026-05-04 18:59 34.98197 137.37252 3971 ft 108 kts 271°
2026-05-04 19:00 34.98066 137.36331 3956 ft 112 kts 277°
2026-05-04 19:00 34.97940 137.35408 3980 ft 109 kts 276°
2026-05-04 19:00 34.97814 137.34487 3968 ft 109 kts 277°
2026-05-04 19:00 34.97642 137.33569 3975 ft 114 kts 269°
2026-05-04 19:01 34.97427 137.32617 3973 ft 119 kts 270°
2026-05-04 19:01 34.97211 137.31670 3959 ft 112 kts 270°
2026-05-04 19:01 34.97006 137.30764 3953 ft 110 kts 271°
2026-05-04 19:01 34.96811 137.29891 3987 ft 105 kts 273°
2026-05-04 19:02 34.96617 137.28998 3978 ft 111 kts 271°
2026-05-04 19:02 34.96430 137.28065 3972 ft 113 kts 274°
2026-05-04 19:02 34.96249 137.27125 3969 ft 115 kts 271°
2026-05-04 19:02 34.96057 137.26191 3968 ft 113 kts 271°
2026-05-04 19:03 34.95861 137.25275 3970 ft 112 kts 270°
2026-05-04 19:03 34.95642 137.24362 3971 ft 114 kts 265°
2026-05-04 19:03 34.95335 137.23472 3976 ft 115 kts 263°
2026-05-04 19:03 34.95014 137.22585 3970 ft 112 kts 263°
2026-05-04 19:04 34.94695 137.21729 3990 ft 112 kts 261°
2026-05-04 19:04 34.94371 137.20842 3979 ft 115 kts 262°
2026-05-04 19:04 34.94051 137.19954 3975 ft 115 kts 263°
2026-05-04 19:04 34.93726 137.19057 3974 ft 117 kts 261°
2026-05-04 19:05 34.93365 137.18165 3971 ft 118 kts 259°
2026-05-04 19:05 34.93000 137.17271 3972 ft 118 kts 259°
2026-05-04 19:05 34.92639 137.16389 3977 ft 118 kts 259°
2026-05-04 19:05 34.92273 137.15496 3969 ft 117 kts 259°
2026-05-04 19:06 34.91908 137.14611 3975 ft 116 kts 259°
2026-05-04 19:06 34.91549 137.13727 3973 ft 116 kts 259°
2026-05-04 19:06 34.91196 137.12850 3974 ft 115 kts 259°
2026-05-04 19:06 34.90839 137.11959 3906 ft 119 kts 259°
2026-05-04 19:07 34.90479 137.11044 3808 ft 121 kts 259°
2026-05-04 19:07 34.90117 137.10119 3705 ft 122 kts 259°
2026-05-04 19:07 34.89754 137.09181 3590 ft 123 kts 259°
2026-05-04 19:07 34.89374 137.08245 3470 ft 130 kts 251°
2026-05-04 19:08 34.88851 137.07349 3331 ft 127 kts 248°
2026-05-04 19:08 34.88336 137.06474 3210 ft 127 kts 247°
2026-05-04 19:08 34.87826 137.05596 3082 ft 126 kts 247°
2026-05-04 19:08 34.87326 137.04716 2956 ft 127 kts 247°
2026-05-04 19:09 34.86828 137.03828 2826 ft 127 kts 247°
2026-05-04 19:09 34.86330 137.02933 2699 ft 128 kts 248°
2026-05-04 19:09 34.85834 137.02042 2571 ft 127 kts 247°
2026-05-04 19:09 34.85336 137.01165 2476 ft 122 kts 247°
2026-05-04 19:10 34.84858 137.00354 2480 ft 118 kts 248°
2026-05-04 19:10 34.84380 136.99550 2475 ft 117 kts 247°
2026-05-04 19:10 34.83909 136.98750 2450 ft 113 kts 248°
2026-05-04 19:10 34.83455 136.97995 2446 ft 111 kts 246°
2026-05-04 19:11 34.82987 136.97231 2363 ft 114 kts 248°
2026-05-04 19:11 34.82502 136.96426 2261 ft 119 kts 248°
2026-05-04 19:11 34.82018 136.95619 2193 ft 118 kts 247°
2026-05-04 19:11 34.81535 136.94818 2116 ft 117 kts 247°
2026-05-04 19:12 34.81061 136.94001 1995 ft 117 kts 252°
2026-05-04 19:12 34.80408 136.92355 1981 ft 105 kts 257°
2026-05-04 19:12 34.80079 136.91525 1936 ft 114 kts 258°
2026-05-04 19:13 34.79759 136.90674 1849 ft 106 kts 258°
2026-05-04 19:13 34.79460 136.89874 1755 ft 101 kts 258°
2026-05-04 19:13 34.79158 136.89093 1740 ft 103 kts 258°
2026-05-04 19:13 34.79029 136.88276 1561 ft 97 kts 282°
2026-05-04 19:14 34.79061 136.87463 1383 ft 95 kts 286°
2026-05-04 19:14 34.79107 136.86692 1318 ft 92 kts 286°
2026-05-04 19:14 34.79130 136.85901 1217 ft 97 kts 277°
2026-05-04 19:14 34.79104 136.85100 1201 ft 91 kts 282°
2026-05-04 19:15 34.79080 136.84338 1166 ft 92 kts 276°
2026-05-04 19:15 34.79094 136.83542 1044 ft 94 kts 290°
2026-05-04 19:15 34.79365 136.82821 850 ft 99 kts 304°
2026-05-04 19:15 34.79782 136.82193 736 ft 94 kts 321°
2026-05-04 19:16 34.80376 136.81864 617 ft 96 kts 342°
2026-05-04 19:16 34.81016 136.81721 494 ft 92 kts 343°
2026-05-04 19:16 34.81619 136.81574 406 ft 82 kts 342°
2026-05-04 19:16 34.82151 136.81439 322 ft 74 kts 339°
2026-05-04 19:17 34.82639 136.81313 259 ft 69 kts 339°
2026-05-04 19:17 34.83078 136.81203 218 ft 61 kts 337°
2026-05-04 19:17 34.83492 136.81100 163 ft 60 kts 335°
2026-05-04 19:17 34.83902 136.81005 111 ft 60 kts 335°
2026-05-04 19:18 34.84306 136.80898 60 ft 60 kts 335°
2026-05-04 19:18 34.84694 136.80799 29 ft 54 kts 340°
2026-05-04 19:18 34.85034 136.80713 16 ft 45 kts 349°
2026-05-04 19:18 34.85290 136.80651 14 ft 31 kts 351°
2026-05-04 19:19 34.85497 136.80612 13 ft 29 kts 348°
2026-05-04 19:19 34.85686 136.80579 12 ft 26 kts 358°
2026-05-04 19:19 34.85860 136.80605 13 ft 24 kts 15°
2026-05-04 19:19 34.86019 136.80670 14 ft 23 kts 20°
2026-05-04 19:20 34.86156 136.80707 14 ft 18 kts 348°
2026-05-04 19:20 34.86275 136.80676 14 ft 18 kts 349°
2026-05-04 19:20 34.86410 136.80648 14 ft 20 kts 356°
2026-05-04 19:20 34.86472 136.80751 14 ft 17 kts 82°
2026-05-04 19:21 34.86554 136.80815 14 ft 16 kts 349°
2026-05-04 19:21 34.86640 136.80811 14 ft 10 kts 54°
2026-05-04 19:21 34.86654 136.80889 21 ft 10 kts 82°
2026-05-04 19:21 34.86658 136.80914 14 ft 0 kts 77°